Time,TemperatureF,DewpointF,PressureIn,WindDirection,WindDirectionDegrees,WindSpeedMPH,WindSpeedGustMPH,Humidity,HourlyPrecipIn,Conditions,Clouds,dailyrainin,SoftwareType,DateUTC
2013-03-26 00:09:00,21.3,6.0,30.39,East,82,3.0,5.0,51,0.00,,,0.00,Wunderground v.1.15,2013-03-26 06:09:00,
2013-03-26 00:14:00,21.1,5.3,30.39,East,99,3.0,5.0,50,0.00,,,0.00,Wunderground v.1.15,2013-03-26 06:14:00,
2013-03-26 00:24:00,20.7,5.4,30.39,East,94,4.0,5.0,51,0.00,,,0.00,Wunderground v.1.15,2013-03-26 06:24:00,
2013-03-26 00:34:00,20.2,4.9,30.38,East,82,3.0,5.0,51,0.00,,,0.00,Wunderground v.1.15,2013-03-26 06:34:00,
2013-03-26 00:39:00,20.1,5.7,30.38,East,90,4.0,4.0,53,0.00,,,0.00,Wunderground v.1.15,2013-03-26 06:39:00,
2013-03-26 00:44:00,20.0,5.6,30.38,ENE,72,3.0,4.0,53,0.00,,,0.00,Wunderground v.1.15,2013-03-26 06:44:00,
2013-03-26 00:54:00,19.8,5.4,30.38,ENE,78,4.0,7.0,53,0.00,,,0.00,Wunderground v.1.15,2013-03-26 06:54:00,
2013-03-26 00:59:00,19.7,5.3,30.38,East,86,4.0,6.0,53,0.00,,,0.00,Wunderground v.1.15,2013-03-26 06:59:00,
2013-03-26 01:09:00,19.4,5.4,30.38,East,82,3.0,5.0,54,0.00,,,0.00,Wunderground v.1.15,2013-03-26 07:09:00,
2013-03-26 01:14:00,19.4,5.4,30.38,ENE,74,3.0,5.0,54,0.00,,,0.00,Wunderground v.1.15,2013-03-26 07:14:00,
2013-03-26 01:19:00,19.4,5.4,30.38,East,94,3.0,5.0,54,0.00,,,0.00,Wunderground v.1.15,2013-03-26 07:19:00,
2013-03-26 01:29:00,19.3,5.3,30.37,ENE,64,4.0,4.0,54,0.00,,,0.00,Wunderground v.1.15,2013-03-26 07:29:00,
2013-03-26 01:34:00,19.3,5.7,30.37,NE,46,3.0,4.0,55,0.00,,,0.00,Wunderground v.1.15,2013-03-26 07:34:00,
2013-03-26 01:39:00,19.2,5.3,30.37,East,82,4.0,5.0,54,0.00,,,0.00,Wunderground v.1.15,2013-03-26 07:39:00,
2013-03-26 01:49:00,19.1,5.6,30.37,ENE,72,3.0,7.0,55,0.00,,,0.00,Wunderground v.1.15,2013-03-26 07:49:00,
2013-03-26 01:54:00,19.1,5.6,30.37,ENE,69,5.0,7.0,55,0.00,,,0.00,Wunderground v.1.15,2013-03-26 07:54:00,
2013-03-26 01:59:00,19.1,5.2,30.37,East,88,5.0,7.0,54,0.00,,,0.00,Wunderground v.1.15,2013-03-26 07:59:00,
2013-03-26 02:09:00,19.1,5.6,30.37,East,88,6.0,6.0,55,0.00,,,0.00,Wunderground v.1.15,2013-03-26 08:09:00,
2013-03-26 02:19:00,19.1,5.2,30.37,East,88,5.0,7.0,54,0.00,,,0.00,Wunderground v.1.15,2013-03-26 08:19:00,
2013-03-26 02:24:00,19.0,5.5,30.37,ENE,76,5.0,7.0,55,0.00,,,0.00,Wunderground v.1.15,2013-03-26 08:24:00,
2013-03-26 02:34:00,18.9,5.4,30.36,East,82,5.0,7.0,55,0.00,,,0.00,Wunderground v.1.15,2013-03-26 08:34:00,
2013-03-26 02:39:00,18.8,5.7,30.35,East,94,4.0,4.0,56,0.00,,,0.00,Wunderground v.1.15,2013-03-26 08:39:00,
2013-03-26 02:44:00,18.7,6.0,30.36,East,79,2.0,4.0,57,0.00,,,0.00,Wunderground v.1.15,2013-03-26 08:44:00,
2013-03-26 02:54:00,18.8,6.4,30.36,East,86,0.0,1.0,58,0.00,,,0.00,Wunderground v.1.15,2013-03-26 08:54:00,
2013-03-26 02:59:00,18.8,6.4,30.36,East,86,0.0,0.0,58,0.00,,,0.00,Wunderground v.1.15,2013-03-26 08:59:00,
2013-03-26 03:09:00,18.8,6.4,30.35,East,86,0.0,0.0,58,0.00,,,0.00,Wunderground v.1.15,2013-03-26 09:09:00,
2013-03-26 03:14:00,18.8,6.1,30.35,East,86,0.0,0.0,57,0.00,,,0.00,Wunderground v.1.15,2013-03-26 09:14:00,
2013-03-26 03:24:00,19.0,6.6,30.34,East,86,0.0,0.0,58,0.00,,,0.00,Wunderground v.1.15,2013-03-26 09:24:00,
2013-03-26 03:29:00,19.0,7.0,30.34,East,86,0.0,0.0,59,0.00,,,0.00,Wunderground v.1.15,2013-03-26 09:29:00,
2013-03-26 03:34:00,19.1,6.7,30.33,East,86,0.0,0.0,58,0.00,,,0.00,Wunderground v.1.15,2013-03-26 09:34:00,
2013-03-26 03:39:00,19.2,7.6,30.33,East,86,0.0,0.0,60,0.00,,,0.00,Wunderground v.1.15,2013-03-26 09:39:00,
2013-03-26 03:44:00,19.3,8.0,30.33,East,86,0.0,0.0,61,0.00,,,0.00,Wunderground v.1.15,2013-03-26 09:44:00,
2013-03-26 03:54:00,19.5,8.2,30.32,East,86,0.0,0.0,61,0.00,,,0.00,Wunderground v.1.15,2013-03-26 09:54:00,
2013-03-26 03:59:00,19.5,8.2,30.32,East,86,0.0,0.0,61,0.00,,,0.00,Wunderground v.1.15,2013-03-26 09:59:00,
2013-03-26 04:09:00,19.6,8.3,30.31,East,86,0.0,0.0,61,0.00,,,0.00,Wunderground v.1.15,2013-03-26 10:09:00,
2013-03-26 04:14:00,19.5,7.9,30.31,East,86,0.0,0.0,60,0.00,,,0.00,Wunderground v.1.15,2013-03-26 10:14:00,
2013-03-26 04:19:00,19.3,8.4,30.31,East,86,0.0,0.0,62,0.00,,,0.00,Wunderground v.1.15,2013-03-26 10:19:00,
2013-03-26 04:24:00,19.1,8.6,30.31,East,86,0.0,0.0,63,0.00,,,0.00,Wunderground v.1.15,2013-03-26 10:24:00,
2013-03-26 04:29:00,19.0,8.1,30.31,East,86,0.0,0.0,62,0.00,,,0.00,Wunderground v.1.15,2013-03-26 10:29:00,
2013-03-26 04:39:00,18.4,8.6,30.31,East,86,0.0,0.0,65,0.00,,,0.00,Wunderground v.1.15,2013-03-26 10:39:00,
2013-03-26 04:44:00,18.2,8.7,30.31,East,86,0.0,0.0,66,0.00,,,0.00,Wunderground v.1.15,2013-03-26 10:44:00,
2013-03-26 04:49:00,18.1,8.6,30.31,East,86,0.0,0.0,66,0.00,,,0.00,Wunderground v.1.15,2013-03-26 10:49:00,
2013-03-26 04:54:00,18.0,8.5,30.31,East,86,0.0,0.0,66,0.00,,,0.00,Wunderground v.1.15,2013-03-26 10:54:00,
2013-03-26 04:59:00,17.9,8.5,30.31,East,86,0.0,0.0,66,0.00,,,0.00,Wunderground v.1.15,2013-03-26 10:59:00,
2013-03-26 05:09:00,17.5,9.1,30.31,East,86,0.0,0.0,69,0.00,,,0.00,Wunderground v.1.15,2013-03-26 11:09:00,
2013-03-26 05:14:00,17.3,8.9,30.31,East,86,0.0,0.0,69,0.00,,,0.00,Wunderground v.1.15,2013-03-26 11:14:00,
2013-03-26 05:19:00,17.3,8.9,30.31,East,86,0.0,0.0,69,0.00,,,0.00,Wunderground v.1.15,2013-03-26 11:19:00,
2013-03-26 05:24:00,17.1,8.7,30.31,East,86,0.0,0.0,69,0.00,,,0.00,Wunderground v.1.15,2013-03-26 11:24:00,
2013-03-26 05:29:00,17.1,9.0,30.31,East,86,0.0,0.0,70,0.00,,,0.00,Wunderground v.1.15,2013-03-26 11:29:00,
2013-03-26 05:39:00,16.8,9.0,30.31,East,86,0.0,0.0,71,0.00,,,0.00,Wunderground v.1.15,2013-03-26 11:39:00,
2013-03-26 05:44:00,16.6,8.8,30.31,East,86,0.0,0.0,71,0.00,,,0.00,Wunderground v.1.15,2013-03-26 11:44:00,
2013-03-26 05:49:00,16.5,9.0,30.31,East,86,0.0,0.0,72,0.00,,,0.00,Wunderground v.1.15,2013-03-26 11:49:00,
2013-03-26 05:54:00,16.4,8.6,30.31,East,86,0.0,0.0,71,0.00,,,0.00,Wunderground v.1.15,2013-03-26 11:54:00,
2013-03-26 06:00:00,16.5,9.0,30.32,East,86,0.0,0.0,72,0.00,,,0.00,Wunderground v.1.15,2013-03-26 12:00:00,
2013-03-26 06:09:00,16.1,8.7,30.32,East,86,0.0,0.0,72,0.00,,,0.00,Wunderground v.1.15,2013-03-26 12:09:00,
2013-03-26 06:14:00,16.3,9.2,30.33,East,86,0.0,0.0,73,0.00,,,0.00,Wunderground v.1.15,2013-03-26 12:14:00,
2013-03-26 06:19:00,16.3,9.2,30.33,East,86,0.0,0.0,73,0.00,,,0.00,Wunderground v.1.15,2013-03-26 12:19:00,
2013-03-26 06:24:00,16.2,9.1,30.32,East,86,0.0,0.0,73,0.00,,,0.00,Wunderground v.1.15,2013-03-26 12:24:00,
2013-03-26 06:29:00,15.9,9.1,30.33,East,86,0.0,0.0,74,0.00,,,0.00,Wunderground v.1.15,2013-03-26 12:29:00,
2013-03-26 06:39:00,15.6,8.8,30.33,East,86,0.0,0.0,74,0.00,,,0.00,Wunderground v.1.15,2013-03-26 12:39:00,
2013-03-26 06:44:00,15.5,9.0,30.33,East,86,0.0,0.0,75,0.00,,,0.00,Wunderground v.1.15,2013-03-26 12:44:00,
2013-03-26 06:49:00,15.7,9.2,30.32,East,86,0.0,0.0,75,0.00,,,0.00,Wunderground v.1.15,2013-03-26 12:49:00,
2013-03-26 06:54:00,15.6,9.1,30.33,East,86,0.0,0.0,75,0.00,,,0.00,Wunderground v.1.15,2013-03-26 12:54:00,
2013-03-26 07:00:00,15.4,9.2,30.33,East,86,0.0,0.0,76,0.00,,,0.00,Wunderground v.1.15,2013-03-26 13:00:00,
2013-03-26 07:09:00,15.5,9.3,30.32,East,86,0.0,0.0,76,0.00,,,0.00,Wunderground v.1.15,2013-03-26 13:09:00,
2013-03-26 07:14:00,15.5,9.3,30.32,East,86,0.0,0.0,76,0.00,,,0.00,Wunderground v.1.15,2013-03-26 13:14:00,
2013-03-26 07:19:00,15.4,9.2,30.32,East,86,0.0,0.0,76,0.00,,,0.00,Wunderground v.1.15,2013-03-26 13:19:00,
2013-03-26 07:24:00,15.5,9.3,30.32,East,86,0.0,0.0,76,0.00,,,0.00,Wunderground v.1.15,2013-03-26 13:24:00,
2013-03-26 07:29:00,15.8,9.6,30.32,East,86,0.0,0.0,76,0.00,,,0.00,Wunderground v.1.15,2013-03-26 13:29:00,
2013-03-26 07:39:00,16.0,9.8,30.32,East,86,0.0,0.0,76,0.00,,,0.00,Wunderground v.1.15,2013-03-26 13:39:00,
2013-03-26 07:49:00,16.1,9.9,30.32,East,86,0.0,0.0,76,0.00,,,0.00,Wunderground v.1.15,2013-03-26 13:49:00,
2013-03-26 07:54:00,16.3,10.1,30.31,SE,132,0.0,0.0,76,0.00,,,0.00,Wunderground v.1.15,2013-03-26 13:54:00,
2013-03-26 07:59:00,16.5,10.3,30.31,SE,132,0.0,0.0,76,0.00,,,0.00,Wunderground v.1.15,2013-03-26 13:59:00,
2013-03-26 08:09:00,16.6,10.3,30.31,SE,132,0.0,0.0,76,0.00,,,0.00,Wunderground v.1.15,2013-03-26 14:09:00,
2013-03-26 08:14:00,16.8,10.5,30.31,SE,132,0.0,0.0,76,0.00,,,0.00,Wunderground v.1.15,2013-03-26 14:14:00,
2013-03-26 08:24:00,17.1,10.5,30.31,SE,132,0.0,0.0,75,0.00,,,0.00,Wunderground v.1.15,2013-03-26 14:24:00,
2013-03-26 08:29:00,17.4,10.8,30.31,SE,132,0.0,0.0,75,0.00,,,0.00,Wunderground v.1.15,2013-03-26 14:29:00,
2013-03-26 08:39:00,18.8,12.2,30.30,SW,225,0.0,3.0,75,0.00,,,0.00,Wunderground v.1.15,2013-03-26 14:39:00,
2013-03-26 08:44:00,20.7,13.4,30.30,WSW,257,0.0,3.0,73,0.00,,,0.00,Wunderground v.1.15,2013-03-26 14:44:00,
2013-03-26 08:49:00,25.4,15.3,30.30,NW,321,1.0,2.0,65,0.00,,,0.00,Wunderground v.1.15,2013-03-26 14:49:00,
2013-03-26 09:00:00,32.8,13.2,30.29,NW,304,3.0,4.0,44,0.00,,,0.00,Wunderground v.1.15,2013-03-26 15:00:00,
2013-03-26 09:09:00,35.7,11.9,30.29,NNW,327,6.0,6.0,37,0.00,,,0.00,Wunderground v.1.15,2013-03-26 15:09:00,
2013-03-26 09:14:00,36.5,12.0,30.28,NW,325,5.0,6.0,36,0.00,,,0.00,Wunderground v.1.15,2013-03-26 15:14:00,
2013-03-26 09:19:00,37.2,12.0,30.28,NNW,328,6.0,6.0,35,0.00,,,0.00,Wunderground v.1.15,2013-03-26 15:19:00,
2013-03-26 09:24:00,37.6,11.7,30.29,West,278,6.0,6.0,34,0.00,,,0.00,Wunderground v.1.15,2013-03-26 15:24:00,
2013-03-26 09:29:00,37.8,11.9,30.29,NW,322,6.0,11.0,34,0.00,,,0.00,Wunderground v.1.15,2013-03-26 15:29:00,
2013-03-26 09:34:00,38.1,11.5,30.28,WNW,293,7.0,11.0,33,0.00,,,0.00,Wunderground v.1.15,2013-03-26 15:34:00,
2013-03-26 09:39:00,38.8,11.4,30.28,WNW,300,6.0,9.0,32,0.00,,,0.00,Wunderground v.1.15,2013-03-26 15:39:00,
2013-03-26 09:49:00,39.3,11.1,30.28,NNW,340,7.0,9.0,31,0.00,,,0.00,Wunderground v.1.15,2013-03-26 15:49:00,
2013-03-26 09:54:00,39.4,11.2,30.28,NNW,345,7.0,11.0,31,0.00,,,0.00,Wunderground v.1.15,2013-03-26 15:54:00,
2013-03-26 09:59:00,39.7,12.2,30.28,WNW,298,6.0,10.0,32,0.00,,,0.00,Wunderground v.1.15,2013-03-26 15:59:00,
2013-03-26 10:09:00,40.0,11.8,30.28,NNW,331,7.0,7.0,31,0.00,,,0.00,Wunderground v.1.15,2013-03-26 16:09:00,
2013-03-26 10:14:00,40.1,11.8,30.28,NW,323,7.0,7.0,31,0.00,,,0.00,Wunderground v.1.15,2013-03-26 16:14:00,
2013-03-26 10:19:00,40.4,11.4,30.28,NW,317,7.0,7.0,30,0.00,,,0.00,Wunderground v.1.15,2013-03-26 16:19:00,
2013-03-26 10:24:00,40.8,11.7,30.27,WNW,290,6.0,7.0,30,0.00,,,0.00,Wunderground v.1.15,2013-03-26 16:24:00,
2013-03-26 10:29:00,40.9,11.0,30.27,NNW,338,6.0,6.0,29,0.00,,,0.00,Wunderground v.1.15,2013-03-26 16:29:00,
2013-03-26 10:39:00,41.2,11.3,30.27,NW,316,7.0,11.0,29,0.00,,,0.00,Wunderground v.1.15,2013-03-26 16:39:00,
2013-03-26 10:49:00,41.9,11.9,30.27,NNW,335,6.0,11.0,29,0.00,,,0.00,Wunderground v.1.15,2013-03-26 16:49:00,
2013-03-26 10:54:00,42.0,11.2,30.27,NW,325,7.0,11.0,28,0.00,,,0.00,Wunderground v.1.15,2013-03-26 16:54:00,
2013-03-26 11:00:00,42.3,11.5,30.27,NNW,334,6.0,6.0,28,0.00,,,0.00,Wunderground v.1.15,2013-03-26 17:00:00,
2013-03-26 11:09:00,43.1,12.2,30.25,NNW,348,6.0,8.0,28,0.00,,,0.00,Wunderground v.1.15,2013-03-26 17:09:00,
2013-03-26 11:14:00,43.4,11.6,30.25,NNW,340,6.0,9.0,27,0.00,,,0.00,Wunderground v.1.15,2013-03-26 17:14:00,
2013-03-26 11:19:00,43.7,11.8,30.25,WNW,295,6.0,6.0,27,0.00,,,0.00,Wunderground v.1.15,2013-03-26 17:19:00,
2013-03-26 11:29:00,43.9,12.0,30.24,NW,315,8.0,8.0,27,0.00,,,0.00,Wunderground v.1.15,2013-03-26 17:29:00,
2013-03-26 11:39:00,44.6,12.6,30.24,NW,315,6.0,7.0,27,0.00,,,0.00,Wunderground v.1.15,2013-03-26 17:39:00,
2013-03-26 11:44:00,44.8,11.9,30.24,WNW,292,7.0,7.0,26,0.00,,,0.00,Wunderground v.1.15,2013-03-26 17:44:00,
2013-03-26 11:49:00,45.0,12.1,30.24,NW,306,8.0,8.0,26,0.00,,,0.00,Wunderground v.1.15,2013-03-26 17:49:00,
2013-03-26 11:54:00,45.1,12.2,30.23,NW,309,7.0,8.0,26,0.00,,,0.00,Wunderground v.1.15,2013-03-26 17:54:00,
2013-03-26 11:59:00,45.4,12.5,30.23,NW,321,8.0,8.0,26,0.00,,,0.00,Wunderground v.1.15,2013-03-26 17:59:00,
2013-03-26 12:09:00,46.2,12.3,30.22,NNW,327,7.0,10.0,25,0.00,,,0.00,Wunderground v.1.15,2013-03-26 18:09:00,
2013-03-26 12:14:00,45.9,12.0,30.22,NW,309,8.0,10.0,25,0.00,,,0.00,Wunderground v.1.15,2013-03-26 18:14:00,
2013-03-26 12:19:00,46.1,12.2,30.21,NNW,331,7.0,7.0,25,0.00,,,0.00,Wunderground v.1.15,2013-03-26 18:19:00,
2013-03-26 12:29:00,46.3,13.2,30.21,North,349,6.0,6.0,26,0.00,,,0.00,Wunderground v.1.15,2013-03-26 18:29:00,
2013-03-26 12:34:00,46.9,12.9,30.21,NW,322,4.0,6.0,25,0.00,,,0.00,Wunderground v.1.15,2013-03-26 18:34:00,
2013-03-26 12:39:00,47.0,12.0,30.21,NNW,330,5.0,5.0,24,0.00,,,0.00,Wunderground v.1.15,2013-03-26 18:39:00,
2013-03-26 12:44:00,47.3,12.3,30.21,NW,321,6.0,6.0,24,0.00,,,0.00,Wunderground v.1.15,2013-03-26 18:44:00,
2013-03-26 12:49:00,47.2,12.2,30.20,NNW,338,5.0,12.0,24,0.00,,,0.00,Wunderground v.1.15,2013-03-26 18:49:00,
2013-03-26 12:59:00,47.4,12.4,30.19,NNW,339,4.0,6.0,24,0.00,,,0.00,Wunderground v.1.15,2013-03-26 18:59:00,
2013-03-26 13:09:00,47.6,12.5,30.18,NNW,334,5.0,8.0,24,0.00,,,0.00,Wunderground v.1.15,2013-03-26 19:09:00,
2013-03-26 13:19:00,48.1,13.0,30.18,NW,319,6.0,6.0,24,0.00,,,0.00,Wunderground v.1.15,2013-03-26 19:19:00,
2013-03-26 13:24:00,48.0,11.9,30.18,NW,311,7.0,7.0,23,0.00,,,0.00,Wunderground v.1.15,2013-03-26 19:24:00,
2013-03-26 13:29:00,47.8,11.7,30.18,NNW,329,7.0,7.0,23,0.00,,,0.00,Wunderground v.1.15,2013-03-26 19:29:00,
2013-03-26 13:39:00,48.2,13.0,30.17,West,266,6.0,6.0,24,0.00,,,0.00,Wunderground v.1.15,2013-03-26 19:39:00,
2013-03-26 13:44:00,48.7,12.5,30.17,North,355,6.0,8.0,23,0.00,,,0.00,Wunderground v.1.15,2013-03-26 19:44:00,
2013-03-26 13:49:00,48.6,12.4,30.17,NNW,329,8.0,8.0,23,0.00,,,0.00,Wunderground v.1.15,2013-03-26 19:49:00,
2013-03-26 13:54:00,48.4,15.0,30.17,West,263,7.0,8.0,26,0.00,,,0.00,Wunderground v.1.15,2013-03-26 19:54:00,
2013-03-26 14:00:00,48.7,12.5,30.16,NNW,347,6.0,16.0,23,0.00,,,0.00,Wunderground v.1.15,2013-03-26 20:00:00,
2013-03-26 14:09:00,48.9,14.6,30.15,NNW,344,7.0,7.0,25,0.00,,,0.00,Wunderground v.1.15,2013-03-26 20:09:00,
2013-03-26 14:19:00,48.8,13.5,30.15,WNW,295,8.0,8.0,24,0.00,,,0.00,Wunderground v.1.15,2013-03-26 20:19:00,
2013-03-26 14:29:00,49.3,13.0,30.14,WNW,303,9.0,10.0,23,0.00,,,0.00,Wunderground v.1.15,2013-03-26 20:29:00,
2013-03-26 14:34:00,49.2,12.9,30.14,NNW,330,8.0,13.0,23,0.00,,,0.00,Wunderground v.1.15,2013-03-26 20:34:00,
2013-03-26 14:39:00,49.1,12.8,30.14,NNW,338,7.0,10.0,23,0.00,,,0.00,Wunderground v.1.15,2013-03-26 20:39:00,
2013-03-26 14:44:00,49.6,13.3,30.13,WNW,295,7.0,10.0,23,0.00,,,0.00,Wunderground v.1.15,2013-03-26 20:44:00,
2013-03-26 14:54:00,49.2,13.9,30.12,NNW,331,8.0,8.0,24,0.00,,,0.00,Wunderground v.1.15,2013-03-26 20:54:00,
2013-03-26 14:59:00,49.1,14.7,30.12,NNW,332,6.0,12.0,25,0.00,,,0.00,Wunderground v.1.15,2013-03-26 20:59:00,
2013-03-26 15:09:00,49.7,13.3,30.12,NNW,341,8.0,8.0,23,0.00,,,0.00,Wunderground v.1.15,2013-03-26 21:09:00,
2013-03-26 15:14:00,49.2,13.9,30.12,NNW,347,7.0,8.0,24,0.00,,,0.00,Wunderground v.1.15,2013-03-26 21:14:00,
2013-03-26 15:19:00,49.3,13.0,30.11,NNE,19,8.0,8.0,23,0.00,,,0.00,Wunderground v.1.15,2013-03-26 21:19:00,
2013-03-26 15:29:00,48.2,13.0,30.11,North,355,7.0,9.0,24,0.00,,,0.00,Wunderground v.1.15,2013-03-26 21:29:00,
2013-03-26 15:34:00,48.3,13.1,30.11,NNW,340,8.0,14.0,24,0.00,,,0.00,Wunderground v.1.15,2013-03-26 21:34:00,
2013-03-26 15:44:00,49.0,13.7,30.10,NW,308,9.0,9.0,24,0.00,,,0.00,Wunderground v.1.15,2013-03-26 21:44:00,
2013-03-26 15:54:00,49.4,14.1,30.09,NE,37,5.0,8.0,24,0.00,,,0.00,Wunderground v.1.15,2013-03-26 21:54:00,
2013-03-26 15:59:00,49.7,14.3,30.09,South,178,3.0,3.0,24,0.00,,,0.00,Wunderground v.1.15,2013-03-26 21:59:00,
2013-03-26 16:09:00,49.7,13.3,30.09,West,275,7.0,7.0,23,0.00,,,0.00,Wunderground v.1.15,2013-03-26 22:09:00,
2013-03-26 16:19:00,49.5,13.2,30.08,WNW,296,6.0,8.0,23,0.00,,,0.00,Wunderground v.1.15,2013-03-26 22:19:00,
2013-03-26 16:24:00,49.5,12.2,30.09,North,355,9.0,14.0,22,0.00,,,0.00,Wunderground v.1.15,2013-03-26 22:24:00,
2013-03-26 16:29:00,49.4,13.1,30.08,NW,316,9.0,9.0,23,0.00,,,0.00,Wunderground v.1.15,2013-03-26 22:29:00,
2013-03-26 16:39:00,49.0,12.7,30.08,NW,311,9.0,9.0,23,0.00,,,0.00,Wunderground v.1.15,2013-03-26 22:39:00,
2013-03-26 16:44:00,49.1,12.8,30.08,NNW,348,7.0,9.0,23,0.00,,,0.00,Wunderground v.1.15,2013-03-26 22:44:00,
2013-03-26 16:49:00,49.1,11.8,30.08,NNW,330,7.0,8.0,22,0.00,,,0.00,Wunderground v.1.15,2013-03-26 22:49:00,
2013-03-26 16:54:00,49.1,11.8,30.08,NW,325,8.0,18.0,22,0.00,,,0.00,Wunderground v.1.15,2013-03-26 22:54:00,
2013-03-26 17:00:00,49.0,11.7,30.08,NNW,340,9.0,9.0,22,0.00,,,0.00,Wunderground v.1.15,2013-03-26 23:00:00,
2013-03-26 17:09:00,49.0,12.7,30.08,NW,306,6.0,6.0,23,0.00,,,0.00,Wunderground v.1.15,2013-03-26 23:09:00,
2013-03-26 17:14:00,48.6,12.4,30.07,NNE,17,3.0,6.0,23,0.00,,,0.00,Wunderground v.1.15,2013-03-26 23:14:00,
2013-03-26 17:19:00,48.2,13.0,30.07,NW,323,2.0,2.0,24,0.00,,,0.00,Wunderground v.1.15,2013-03-26 23:19:00,
2013-03-26 17:24:00,48.1,13.0,30.07,NNW,331,3.0,11.0,24,0.00,,,0.00,Wunderground v.1.15,2013-03-26 23:24:00,
2013-03-26 17:29:00,48.5,12.3,30.07,NNW,332,5.0,5.0,23,0.00,,,0.00,Wunderground v.1.15,2013-03-26 23:29:00,
2013-03-26 17:39:00,48.8,12.6,30.07,WNW,303,5.0,5.0,23,0.00,,,0.00,Wunderground v.1.15,2013-03-26 23:39:00,
2013-03-26 17:44:00,48.8,12.6,30.07,NNW,338,5.0,5.0,23,0.00,,,0.00,Wunderground v.1.15,2013-03-26 23:44:00,
2013-03-26 17:49:00,48.5,12.3,30.06,NW,323,3.0,3.0,23,0.00,,,0.00,Wunderground v.1.15,2013-03-26 23:49:00,
2013-03-26 17:54:00,47.9,12.8,30.06,NW,325,3.0,3.0,24,0.00,,,0.00,Wunderground v.1.15,2013-03-26 23:54:00,
2013-03-26 18:00:00,47.8,11.7,30.06,NNE,31,6.0,6.0,23,0.00,,,0.00,Wunderground v.1.15,2013-03-27 00:00:00,
2013-03-26 18:09:00,47.6,11.6,30.06,NW,311,5.0,9.0,23,0.00,,,0.00,Wunderground v.1.15,2013-03-27 00:09:00,
2013-03-26 18:14:00,47.5,11.5,30.06,NNW,332,6.0,9.0,23,0.00,,,0.00,Wunderground v.1.15,2013-03-27 00:14:00,
2013-03-26 18:24:00,46.8,12.8,30.06,North,355,2.0,5.0,25,0.00,,,0.00,Wunderground v.1.15,2013-03-27 00:24:00,
2013-03-26 18:29:00,46.3,13.2,30.06,NW,313,1.0,1.0,26,0.00,,,0.00,Wunderground v.1.15,2013-03-27 00:29:00,
2013-03-26 18:34:00,45.4,14.9,30.07,NW,311,1.0,1.0,29,0.00,,,0.00,Wunderground v.1.15,2013-03-27 00:34:00,
2013-03-26 18:44:00,44.2,15.4,30.06,North,9,0.0,1.0,31,0.00,,,0.00,Wunderground v.1.15,2013-03-27 00:44:00,
2013-03-26 18:54:00,43.2,14.6,30.07,WSW,242,0.0,0.0,31,0.00,,,0.00,Wunderground v.1.15,2013-03-27 00:54:00,
2013-03-26 19:00:00,42.9,15.7,30.07,WSW,240,0.0,0.0,33,0.00,,,0.00,Wunderground v.1.15,2013-03-27 01:00:00,
2013-03-26 19:09:00,42.9,15.0,30.06,WNW,300,0.0,0.0,32,0.00,,,0.00,Wunderground v.1.15,2013-03-27 01:09:00,
2013-03-26 19:19:00,42.2,16.5,30.07,NNW,329,0.0,0.0,35,0.00,,,0.00,Wunderground v.1.15,2013-03-27 01:19:00,
2013-03-26 19:24:00,42.2,12.9,30.06,WNW,298,1.0,1.0,30,0.00,,,0.00,Wunderground v.1.15,2013-03-27 01:24:00,
2013-03-26 19:29:00,43.2,12.2,30.06,NW,305,2.0,2.0,28,0.00,,,0.00,Wunderground v.1.15,2013-03-27 01:29:00,
2013-03-26 19:39:00,42.2,16.5,30.06,West,278,0.0,0.0,35,0.00,,,0.00,Wunderground v.1.15,2013-03-27 01:39:00,
2013-03-26 19:44:00,40.6,18.1,30.06,SE,135,0.0,0.0,40,0.00,,,0.00,Wunderground v.1.15,2013-03-27 01:44:00,
2013-03-26 19:49:00,40.2,16.0,30.06,NE,48,1.0,3.0,37,0.00,,,0.00,Wunderground v.1.15,2013-03-27 01:49:00,
2013-03-26 19:59:00,42.3,13.8,30.06,West,268,2.0,2.0,31,0.00,,,0.00,Wunderground v.1.15,2013-03-27 01:59:00,
2013-03-26 20:09:00,41.2,15.6,30.06,WSW,251,0.0,0.0,35,0.00,,,0.00,Wunderground v.1.15,2013-03-27 02:09:00,
2013-03-26 20:14:00,40.4,15.5,30.06,WSW,250,0.0,0.0,36,0.00,,,0.00,Wunderground v.1.15,2013-03-27 02:14:00,
2013-03-26 20:19:00,39.7,17.3,30.06,WSW,246,0.0,0.0,40,0.00,,,0.00,Wunderground v.1.15,2013-03-27 02:19:00,
2013-03-26 20:29:00,39.5,17.1,30.06,WNW,288,0.0,0.0,40,0.00,,,0.00,Wunderground v.1.15,2013-03-27 02:29:00,
2013-03-26 20:34:00,38.7,19.2,30.06,South,169,0.0,0.0,45,0.00,,,0.00,Wunderground v.1.15,2013-03-27 02:34:00,
2013-03-26 20:39:00,38.1,19.1,30.05,South,169,0.0,0.0,46,0.00,,,0.00,Wunderground v.1.15,2013-03-27 02:39:00,
2013-03-26 20:49:00,38.9,17.2,30.05,SW,225,0.0,0.0,41,0.00,,,0.00,Wunderground v.1.15,2013-03-27 02:49:00,
2013-03-26 20:54:00,38.5,17.9,30.05,NNW,336,0.0,0.0,43,0.00,,,0.00,Wunderground v.1.15,2013-03-27 02:54:00,
2013-03-26 20:59:00,39.0,15.5,30.05,NNE,22,1.0,6.0,38,0.00,,,0.00,Wunderground v.1.15,2013-03-27 02:59:00,
2013-03-26 21:09:00,41.9,14.1,30.04,ESE,115,2.0,2.0,32,0.00,,,0.00,Wunderground v.1.15,2013-03-27 03:09:00,
2013-03-26 21:14:00,42.4,13.1,30.05,NNW,330,1.0,5.0,30,0.00,,,0.00,Wunderground v.1.15,2013-03-27 03:14:00,
2013-03-26 21:19:00,42.7,13.4,30.05,NNW,331,1.0,6.0,30,0.00,,,0.00,Wunderground v.1.15,2013-03-27 03:19:00,
2013-03-26 21:29:00,44.4,12.5,30.04,SSW,210,3.0,3.0,27,0.00,,,0.00,Wunderground v.1.15,2013-03-27 03:29:00,
2013-03-26 21:34:00,42.3,15.9,30.04,WSW,257,1.0,3.0,34,0.00,,,0.00,Wunderground v.1.15,2013-03-27 03:34:00,
2013-03-26 21:39:00,41.5,15.2,30.04,WSW,242,0.0,0.0,34,0.00,,,0.00,Wunderground v.1.15,2013-03-27 03:39:00,
2013-03-26 21:49:00,39.9,16.3,30.04,East,86,0.0,0.0,38,0.00,,,0.00,Wunderground v.1.15,2013-03-27 03:49:00,
2013-03-26 21:59:00,39.3,15.8,30.05,East,91,0.0,0.0,38,0.00,,,0.00,Wunderground v.1.15,2013-03-27 03:59:00,
2013-03-26 22:04:00,39.2,16.3,30.05,NW,313,0.0,0.0,39,0.00,,,0.00,Wunderground v.1.15,2013-03-27 04:04:00,
2013-03-26 22:09:00,39.0,16.7,30.05,West,269,1.0,1.0,40,0.00,,,0.00,Wunderground v.1.15,2013-03-27 04:09:00,
2013-03-26 22:14:00,38.4,17.3,30.05,West,269,0.0,1.0,42,0.00,,,0.00,Wunderground v.1.15,2013-03-27 04:14:00,
2013-03-26 22:19:00,38.9,16.6,30.04,WNW,286,0.0,1.0,40,0.00,,,0.00,Wunderground v.1.15,2013-03-27 04:19:00,
2013-03-26 22:24:00,38.4,16.7,30.04,WNW,286,0.0,1.0,41,0.00,,,0.00,Wunderground v.1.15,2013-03-27 04:24:00,
2013-03-26 22:29:00,38.2,17.1,30.04,ENE,78,0.0,0.0,42,0.00,,,0.00,Wunderground v.1.15,2013-03-27 04:29:00,
2013-03-26 22:39:00,36.5,18.6,30.04,SSE,163,0.0,0.0,48,0.00,,,0.00,Wunderground v.1.15,2013-03-27 04:39:00,
2013-03-26 22:44:00,35.6,19.2,30.04,SSE,163,0.0,0.0,51,0.00,,,0.00,Wunderground v.1.15,2013-03-27 04:44:00,
2013-03-26 22:49:00,34.5,20.0,30.04,SSE,163,0.0,0.0,55,0.00,,,0.00,Wunderground v.1.15,2013-03-27 04:49:00,
2013-03-26 22:54:00,34.2,19.7,30.04,SSE,163,0.0,0.0,55,0.00,,,0.00,Wunderground v.1.15,2013-03-27 04:54:00,
2013-03-26 23:00:00,33.4,18.5,30.05,SSE,163,0.0,0.0,54,0.00,,,0.00,Wunderground v.1.15,2013-03-27 05:00:00,
2013-03-26 23:09:00,32.7,18.3,30.05,South,188,0.0,0.0,55,0.00,,,0.00,Wunderground v.1.15,2013-03-27 05:09:00,
2013-03-26 23:14:00,32.8,19.6,30.05,South,188,0.0,0.0,58,0.00,,,0.00,Wunderground v.1.15,2013-03-27 05:14:00,
2013-03-26 23:19:00,32.1,19.8,30.04,SW,217,0.0,0.0,60,0.00,,,0.00,Wunderground v.1.15,2013-03-27 05:19:00,
2013-03-26 23:24:00,31.7,18.2,30.05,South,189,0.0,0.0,57,0.00,,,0.00,Wunderground v.1.15,2013-03-27 05:24:00,
2013-03-26 23:29:00,31.6,18.1,30.04,South,189,0.0,0.0,57,0.00,,,0.00,Wunderground v.1.15,2013-03-27 05:29:00,
2013-03-26 23:39:00,31.0,17.9,30.04,SSE,161,0.0,0.0,58,0.00,,,0.00,Wunderground v.1.15,2013-03-27 05:39:00,
2013-03-26 23:49:00,30.7,18.1,30.04,ESE,118,1.0,1.0,59,0.00,,,0.00,Wunderground v.1.15,2013-03-27 05:49:00,
2013-03-26 23:54:00,30.5,17.9,30.04,ESE,118,1.0,1.0,59,0.00,,,0.00,Wunderground v.1.15,2013-03-27 05:54:00,
2013-03-26 23:59:00,30.1,17.5,30.04,South,188,0.0,0.0,59,0.00,,,0.00,Wunderground v.1.15,2013-03-27 05:59:00,